Flora, IL

12:40 AM CST on December 04, 2016 (GMT -0600)
Flora Municipal

Weather History for KFOA - May, 2013

Change the Weather History Date:

Friday, May 3, 2013

  Actual Average (KEVV) Record (KEVV)
Temperature  
Mean Temperature 62 °F 62 °F  
Max Temperature 72 °F 73 °F 89 °F (1959)
Min Temperature 51 °F 50 °F 34 °F (2005)
Degree Days  
Heating Degree Days 3 5  
Month to date heating degree days 15  
Since 1 July heating degree days 4470  
Cooling Degree Days 0 1  
Month to date cooling degree days 3  
Year to date cooling degree days 30  
Growing Degree Days 12 (Base 50)    
Moisture  
Dew Point 56 °F    
Average Humidity 82    
Maximum Humidity 100    
Minimum Humidity 55    
Precipitation  
Precipitation 0.07 in 0.18 in 2.46 in (1942)
Month to date precipitation 0.51  
Year to date precipitation 15.39  
Snow  
Snow 0.00 in 0.00 in - ()
Month to date snowfall 0.0  
Since 1 July snowfall 11.8  
Snow Depth -    
Sea Level Pressure  
Sea Level Pressure 29.91 in    
Wind  
Wind Speed 8 mph (SSE)    
Max Wind Speed 25 mph    
Max Gust Speed 33 mph    
Visibility 8 miles    
Events Fog , Rain    
T = Trace of Precipitation, MM = Missing Value Source: NWS Daily Summary

Daily Weather History Graph

Daily Weather History Graph

Search for Another Location

Airport or City:

Trip Planner

Search our weather history database for the weather conditions in past years. The results will help you decide how hot, cold, wet, or windy it might be!

Date:

Astronomy

May. 03, 2013 Rise Set
Actual Time 5:53 AM CDT 7:48 PM CDT
Civil Twilight 5:24 AM CDT 8:17 PM CDT
Nautical Twilight 4:49 AM CDT 8:52 PM CDT
Astronomical Twilight 4:12 AM CDT 9:30 PM CDT
Moon 2:13 AM CDT (5/3) 1:46 PM CDT (5/3)
Length of Visible Light 14h 52m
Length of Day
13h 54m
Last Quarter, 37% of the Moon is Illuminated
May 3
Last Quarter
May 9
New
May 17
First Quarter
May 24
Full
May 31
Last Quarter

Hourly Weather History & Observations

Time (CDT) Temp. Dew Point Humidity Pressure Visibility Wind Dir Wind Speed Gust Speed Precip Events Conditions
12:15 AM 56.5 °F 54.7 °F 94% 30.04 in 7.0 mi NW 5.8 mph - N/A   Overcast
12:35 AM 56.3 °F 54.5 °F 94% 30.04 in 7.0 mi WNW 6.9 mph - N/A   Overcast
12:55 AM 56.3 °F 54.7 °F 94% 30.05 in 5.0 mi West 9.2 mph - N/A   Overcast
1:15 AM 55.6 °F 54.0 °F 94% 30.06 in 5.0 mi WSW 10.4 mph - N/A Rain Rain
1:35 AM 54.5 °F 53.6 °F 97% 30.05 in 4.0 mi West 5.8 mph - 0.04 in Rain Light Rain
1:55 AM 53.8 °F 52.7 °F 96% 30.03 in 5.0 mi NNW 4.6 mph - 0.04 in   Drizzle
2:15 AM 53.6 °F 52.9 °F 97% 30.01 in 4.0 mi NNW 8.1 mph - 0.01 in   Light Drizzle
2:35 AM 53.2 °F 52.7 °F 98% 29.99 in 5.0 mi NNW 5.8 mph - 0.01 in   Mostly Cloudy
2:55 AM 53.6 °F 52.9 °F 97% 29.99 in 5.0 mi NNW 3.5 mph - 0.01 in   Mostly Cloudy
3:15 AM 53.8 °F 53.1 °F 97% 29.99 in 5.0 mi WNW 3.5 mph - N/A   Overcast
3:35 AM 54.0 °F 53.2 °F 97% - 4.0 mi Calm Calm - N/A   Light Drizzle
3:55 AM 54.5 °F 53.8 °F 97% 29.98 in 4.0 mi Calm Calm - N/A   Overcast
4:15 AM 54.5 °F 53.8 °F 97% 29.98 in 4.0 mi Calm Calm - N/A   Overcast
4:35 AM 54.7 °F 54.0 °F 97% 29.98 in 4.0 mi Calm Calm - N/A   Overcast
4:55 AM 54.7 °F 54.1 °F 98% 29.97 in 3.0 mi Calm Calm - N/A   Overcast
5:15 AM 54.9 °F 54.5 °F 99% 29.97 in 3.0 mi Calm Calm - N/A Rain Light Rain
5:35 AM 55.2 °F 54.7 °F 98% 29.97 in 3.0 mi Calm Calm - N/A   Overcast
5:55 AM 55.4 °F 54.7 °F 97% 29.97 in 1.2 mi SE 3.5 mph - N/A Rain Rain
6:15 AM 55.8 °F 55.4 °F 99% 29.97 in 0.2 mi Calm Calm - N/A   Light Drizzle
6:35 AM 56.3 °F 56.3 °F 100% 29.97 in 0.2 mi SE 3.5 mph - N/A Fog Fog
6:55 AM 56.5 °F 56.3 °F 99% 29.97 in 0.2 mi Calm Calm - N/A Fog Fog
7:15 AM 57.7 °F 57.6 °F 99% 29.97 in 0.5 mi ESE 4.6 mph - N/A Fog Fog
7:35 AM 58.8 °F 58.6 °F 99% 29.97 in 1.0 mi ESE 6.9 mph - N/A   Overcast
7:55 AM 59.9 °F 59.9 °F 100% 29.96 in 1.5 mi ESE 8.1 mph - N/A   Overcast
8:15 AM 60.8 °F 60.8 °F 100% 29.95 in 3.0 mi SE 9.2 mph - N/A   Mostly Cloudy
8:35 AM 61.7 °F 61.2 °F 98% 29.95 in 5.0 mi SSE 9.2 mph - N/A   Mostly Cloudy
8:55 AM 63.7 °F 61.0 °F 91% 29.95 in 7.0 mi SSE 11.5 mph - N/A   Mostly Cloudy
9:15 AM 64.0 °F 60.8 °F 89% 29.94 in 10.0 mi SE 12.7 mph 17.3 mph N/A   Mostly Cloudy
9:35 AM 65.1 °F 60.4 °F 85% 29.94 in 10.0 mi SSE 13.8 mph - N/A   Mostly Cloudy
9:55 AM 65.3 °F 59.9 °F 83% 29.94 in 10.0 mi SSE 12.7 mph 19.6 mph N/A   Mostly Cloudy
10:15 AM 65.3 °F 59.4 °F 81% 29.94 in 10.0 mi SSE 13.8 mph - N/A   Mostly Cloudy
10:35 AM 65.3 °F 58.1 °F 77% 29.93 in 10.0 mi SSE 13.8 mph - N/A   Scattered Clouds
10:55 AM 67.1 °F 57.9 °F 72% 29.93 in 10.0 mi SE 15.0 mph - N/A   Scattered Clouds
11:15 AM 67.1 °F 57.2 °F 70% 29.92 in 10.0 mi SSE 18.4 mph - N/A   Scattered Clouds
11:35 AM 68.9 °F 57.7 °F 68% 29.91 in 10.0 mi SSE 16.1 mph 23.0 mph N/A   Scattered Clouds
11:55 AM 69.4 °F 58.1 °F 67% 29.91 in 10.0 mi SSE 12.7 mph - N/A   Scattered Clouds
12:15 PM 68.2 °F 57.2 °F 68% 29.90 in 10.0 mi SSE 15.0 mph - N/A   Mostly Cloudy
12:35 PM 69.8 °F 57.2 °F 64% 29.89 in 10.0 mi SSE 13.8 mph - N/A   Scattered Clouds
12:55 PM 69.8 °F 57.4 °F 65% 29.88 in 10.0 mi SE 15.0 mph 21.9 mph N/A   Mostly Cloudy
1:15 PM 69.3 °F 57.0 °F 65% 29.88 in 10.0 mi SE 18.4 mph 23.0 mph N/A   Overcast
1:35 PM 65.5 °F 59.2 °F 80% 29.89 in 5.0 mi SSE 11.5 mph - 0.01 in Rain Rain
1:55 PM 65.8 °F 60.8 °F 84% 29.88 in 10.0 mi SSE 8.1 mph - 0.01 in   Mostly Cloudy
2:15 PM 68.9 °F 59.9 °F 73% 29.87 in 10.0 mi SE 13.8 mph - N/A   Mostly Cloudy
2:35 PM 70.7 °F 60.6 °F 70% 29.85 in 10.0 mi ESE 11.5 mph - N/A   Scattered Clouds
2:55 PM 70.9 °F 57.7 °F 63% 29.85 in 10.0 mi SE 15.0 mph - N/A   Scattered Clouds
3:15 PM 71.8 °F 57.6 °F 61% 29.84 in 10.0 mi SE 17.3 mph 23.0 mph N/A   Mostly Cloudy
3:35 PM 72.0 °F 56.7 °F 58% 29.83 in 10.0 mi SE 16.1 mph 19.6 mph N/A   Mostly Cloudy
3:55 PM 71.8 °F 57.2 °F 60% 29.82 in 10.0 mi SE 11.5 mph - N/A   Mostly Cloudy
4:15 PM 72.1 °F 57.9 °F 61% 29.81 in 10.0 mi ESE 13.8 mph 20.7 mph N/A   Scattered Clouds
4:35 PM 72.1 °F 57.7 °F 60% 29.81 in 10.0 mi SE 17.3 mph - N/A   Scattered Clouds
4:55 PM 70.7 °F 57.4 °F 63% 29.80 in 10.0 mi SE 11.5 mph - N/A   Scattered Clouds
5:15 PM 72.1 °F 56.7 °F 58% 29.80 in 10.0 mi SE 18.4 mph 23.0 mph N/A   Scattered Clouds
5:35 PM 72.1 °F 55.0 °F 55% 29.79 in 10.0 mi SE 16.1 mph 21.9 mph N/A   Scattered Clouds
5:55 PM 71.8 °F 55.6 °F 57% 29.79 in 10.0 mi SE 17.3 mph 24.2 mph N/A   Scattered Clouds
6:15 PM 70.9 °F 54.5 °F 56% 29.79 in 10.0 mi SE 12.7 mph 20.7 mph N/A   Scattered Clouds
6:35 PM 70.3 °F 54.3 °F 57% 29.79 in 10.0 mi ESE 17.3 mph 20.7 mph N/A   Clear
6:55 PM 70.0 °F 54.3 °F 57% 29.79 in 10.0 mi ESE 13.8 mph 19.6 mph N/A   Clear
7:15 PM 69.8 °F 54.7 °F 59% 29.79 in 10.0 mi ESE 13.8 mph - N/A   Scattered Clouds
7:35 PM 68.9 °F 54.9 °F 61% 29.79 in 10.0 mi ESE 11.5 mph - N/A   Scattered Clouds
7:55 PM 69.1 °F 54.9 °F 60% 29.79 in 10.0 mi ESE 13.8 mph - N/A   Mostly Cloudy
8:15 PM 69.4 °F 54.5 °F 59% 29.79 in 10.0 mi ESE 15.0 mph 29.9 mph N/A   Mostly Cloudy
8:35 PM 67.3 °F 55.9 °F 67% 29.81 in 10.0 mi SE 25.3 mph 33.4 mph N/A Rain Light Rain
8:55 PM 63.0 °F 56.7 °F 80% 29.82 in 10.0 mi South 9.2 mph - N/A   Overcast
9:15 PM 54.7 °F 51.4 °F 89% 29.85 in 10.0 mi WSW 11.5 mph - N/A Rain Light Rain
9:35 PM 52.9 °F 51.1 °F 94% 29.86 in 10.0 mi SW 4.6 mph - N/A Rain Light Rain
9:55 PM 52.9 °F 51.1 °F 94% 29.87 in 10.0 mi Calm Calm - N/A   Overcast
10:15 PM 52.9 °F 51.1 °F 94% 29.87 in 10.0 mi South 3.5 mph - N/A   Overcast
10:35 PM 53.1 °F 51.3 °F 94% 29.87 in 10.0 mi SSE 4.6 mph - 0.01 in Rain Rain
10:55 PM 52.9 °F 51.3 °F 94% 29.87 in 10.0 mi SSE 5.8 mph - 0.01 in Rain Light Rain
11:15 PM 52.9 °F 51.3 °F 94% 29.87 in 10.0 mi South 8.1 mph - N/A   Light Drizzle
11:35 PM 52.2 °F 50.9 °F 95% 29.89 in 10.0 mi SSE 9.2 mph - N/A   Overcast
11:55 PM 51.8 °F 50.4 °F 95% 29.88 in 10.0 mi South 9.2 mph - N/A Rain Rain